Time,TemperatureF,DewpointF,PressureIn,WindDirection,WindDirectionDegrees,WindSpeedMPH,WindSpeedGustMPH,Humidity,HourlyPrecipIn,Conditions,Clouds,dailyrainin,SoftwareType,DateUTC
2013-03-15 00:02:00,41.0,33.0,30.14,SE,135,4.0,5.0,73,-99.99,,,-99.99,,2013-03-15 05:02:00,
2013-03-15 00:12:00,40.0,33.0,30.14,SSE,157,5.0,6.0,77,-99.99,,,-99.99,,2013-03-15 05:12:00,
2013-03-15 00:22:00,39.0,32.0,30.13,SSE,157,5.0,6.0,77,-99.99,,,-99.99,,2013-03-15 05:22:00,
2013-03-15 00:32:00,39.0,33.0,30.12,SSE,157,5.0,7.0,78,-99.99,,,-99.99,,2013-03-15 05:32:00,
2013-03-15 00:42:00,39.0,32.0,30.13,SSE,157,5.0,6.0,78,-99.99,,,-99.99,,2013-03-15 05:42:00,
2013-03-15 00:52:00,39.0,32.0,30.12,SSE,157,5.0,7.0,77,-99.99,,,-99.99,,2013-03-15 05:52:00,
2013-03-15 01:02:00,38.0,32.0,30.12,SSE,157,5.0,6.0,80,-99.99,,,-99.99,,2013-03-15 06:02:00,
2013-03-15 01:12:00,38.0,32.0,30.11,South,180,5.0,7.0,78,-99.99,,,-99.99,,2013-03-15 06:12:00,
2013-03-15 01:22:00,36.0,32.0,30.10,SSE,157,5.0,6.0,84,-99.99,,,-99.99,,2013-03-15 06:22:00,
2013-03-15 01:32:00,36.0,32.0,30.10,SSE,157,4.0,5.0,83,-99.99,,,-99.99,,2013-03-15 06:32:00,
2013-03-15 01:42:00,36.0,32.0,30.10,SSE,157,3.0,4.0,83,-99.99,,,-99.99,,2013-03-15 06:42:00,
2013-03-15 01:52:00,36.0,32.0,30.10,SSE,157,4.0,4.0,83,-99.99,,,-99.99,,2013-03-15 06:52:00,
2013-03-15 02:02:00,35.0,31.0,30.09,SSE,157,3.0,3.0,86,-99.99,,,-99.99,,2013-03-15 07:02:00,
2013-03-15 02:12:00,35.0,31.0,30.09,South,180,3.0,4.0,87,-99.99,,,-99.99,,2013-03-15 07:12:00,
2013-03-15 02:22:00,35.0,32.0,30.09,SSE,157,3.0,4.0,87,-99.99,,,-99.99,,2013-03-15 07:22:00,
2013-03-15 02:32:00,34.0,31.0,30.08,SSE,157,3.0,4.0,89,-99.99,,,-99.99,,2013-03-15 07:32:00,
2013-03-15 02:42:00,34.0,31.0,30.08,SSE,157,3.0,4.0,88,-99.99,,,-99.99,,2013-03-15 07:42:00,
2013-03-15 02:52:00,35.0,31.0,30.08,SSE,157,3.0,4.0,85,-99.99,,,-99.99,,2013-03-15 07:52:00,
2013-03-15 03:02:00,34.0,31.0,30.07,SSE,157,3.0,3.0,89,-99.99,,,-99.99,,2013-03-15 08:02:00,
2013-03-15 03:12:00,33.0,31.0,30.06,SSE,157,3.0,4.0,91,-99.99,,,-99.99,,2013-03-15 08:12:00,
2013-03-15 03:22:00,34.0,31.0,30.05,SSE,157,3.0,4.0,90,-99.99,,,-99.99,,2013-03-15 08:22:00,
2013-03-15 03:32:00,34.0,31.0,30.05,SSE,157,4.0,4.0,88,-99.99,,,-99.99,,2013-03-15 08:32:00,
2013-03-15 03:42:00,34.0,31.0,30.05,South,180,4.0,5.0,90,-99.99,,,-99.99,,2013-03-15 08:42:00,
2013-03-15 03:52:00,34.0,31.0,30.05,SSE,157,2.0,4.0,89,-99.99,,,-99.99,,2013-03-15 08:52:00,
2013-03-15 04:02:00,34.0,31.0,30.04,SSE,157,4.0,4.0,89,-99.99,,,-99.99,,2013-03-15 09:02:00,
2013-03-15 04:12:00,33.0,31.0,30.04,SSE,157,4.0,5.0,91,-99.99,,,-99.99,,2013-03-15 09:12:00,
2013-03-15 04:22:00,34.0,31.0,30.04,SSE,157,3.0,3.0,91,-99.99,,,-99.99,,2013-03-15 09:22:00,
2013-03-15 04:33:00,34.0,31.0,30.04,South,180,3.0,3.0,92,-99.99,,,-99.99,,2013-03-15 09:33:00,
2013-03-15 04:43:00,33.0,31.0,30.03,South,180,3.0,4.0,91,-99.99,,,-99.99,,2013-03-15 09:43:00,
2013-03-15 04:52:00,33.0,31.0,30.03,SSE,157,3.0,3.0,93,-99.99,,,-99.99,,2013-03-15 09:52:00,
2013-03-15 05:02:00,33.0,31.0,30.02,SSE,157,3.0,4.0,94,-99.99,,,-99.99,,2013-03-15 10:02:00,
2013-03-15 05:12:00,33.0,31.0,30.02,SSE,157,2.0,3.0,92,-99.99,,,-99.99,,2013-03-15 10:12:00,
2013-03-15 05:23:00,33.0,31.0,30.02,ESE,112,0.0,-999.0,94,-99.99,,,-99.99,,2013-03-15 10:23:00,
2013-03-15 05:32:00,33.0,31.0,30.02,SSE,157,2.0,3.0,93,-99.99,,,-99.99,,2013-03-15 10:32:00,
2013-03-15 05:42:00,33.0,31.0,30.02,SSE,157,3.0,3.0,92,-99.99,,,-99.99,,2013-03-15 10:42:00,
2013-03-15 05:52:00,33.0,31.0,30.02,SE,135,2.0,3.0,93,-99.99,,,-99.99,,2013-03-15 10:52:00,
2013-03-15 06:02:00,32.0,31.0,30.02,SSE,157,3.0,4.0,95,-99.99,,,-99.99,,2013-03-15 11:02:00,
2013-03-15 06:12:00,33.0,31.0,30.02,SSE,157,0.0,-999.0,93,-99.99,,,-99.99,,2013-03-15 11:12:00,
2013-03-15 06:22:00,32.0,31.0,30.02,SE,135,2.0,2.0,95,-99.99,,,-99.99,,2013-03-15 11:22:00,
2013-03-15 06:32:00,32.0,31.0,30.02,SE,135,0.0,-999.0,95,-99.99,,,-99.99,,2013-03-15 11:32:00,
2013-03-15 06:42:00,32.0,31.0,30.02,SSE,157,0.0,-999.0,94,-99.99,,,-99.99,,2013-03-15 11:42:00,
2013-03-15 06:52:00,32.0,31.0,30.03,SSE,157,0.0,-999.0,94,-99.99,,,-99.99,,2013-03-15 11:52:00,
2013-03-15 07:02:00,32.0,31.0,30.02,South,180,1.0,2.0,94,-99.99,,,-99.99,,2013-03-15 12:02:00,
2013-03-15 07:12:00,32.0,31.0,30.02,SE,135,1.0,2.0,95,-99.99,,,-99.99,,2013-03-15 12:12:00,
2013-03-15 07:22:00,32.0,31.0,30.02,SSE,157,2.0,3.0,95,-99.99,,,-99.99,,2013-03-15 12:22:00,
2013-03-15 07:32:00,32.0,31.0,30.02,SSE,157,0.0,-999.0,96,-99.99,,,-99.99,,2013-03-15 12:32:00,
2013-03-15 07:42:00,32.0,31.0,30.02,SSE,157,0.0,-999.0,96,-99.99,,,-99.99,,2013-03-15 12:42:00,
2013-03-15 07:52:00,33.0,32.0,30.01,SE,135,2.0,3.0,94,-99.99,,,-99.99,,2013-03-15 12:52:00,
2013-03-15 08:02:00,33.0,32.0,30.01,SSE,157,3.0,4.0,95,-99.99,,,-99.99,,2013-03-15 13:02:00,
2013-03-15 08:12:00,34.0,32.0,30.01,SSE,157,3.0,5.0,92,-99.99,,,-99.99,,2013-03-15 13:12:00,
2013-03-15 08:22:00,34.0,32.0,30.01,SSE,157,1.0,3.0,93,-99.99,,,-99.99,,2013-03-15 13:22:00,
2013-03-15 08:32:00,35.0,33.0,30.01,SSE,157,2.0,3.0,93,-99.99,,,-99.99,,2013-03-15 13:32:00,
2013-03-15 08:42:00,35.0,33.0,30.00,SSE,157,3.0,4.0,92,-99.99,,,-99.99,,2013-03-15 13:42:00,
2013-03-15 08:52:00,35.0,33.0,30.00,SSE,157,3.0,4.0,93,-99.99,,,-99.99,,2013-03-15 13:52:00,
2013-03-15 09:02:00,37.0,34.0,30.01,SSE,157,2.0,3.0,91,-99.99,,,-99.99,,2013-03-15 14:02:00,
2013-03-15 09:12:00,38.0,35.0,30.01,SSE,157,0.0,-999.0,90,-99.99,,,-99.99,,2013-03-15 14:12:00,
2013-03-15 09:22:00,40.0,36.0,30.01,SSE,157,0.0,-999.0,86,-99.99,,,-99.99,,2013-03-15 14:22:00,
2013-03-15 09:32:00,42.0,36.0,30.01,SSE,157,2.0,2.0,81,-99.99,,,-99.99,,2013-03-15 14:32:00,
2013-03-15 09:42:00,44.0,38.0,30.00,SSE,157,1.0,3.0,79,-99.99,,,-99.99,,2013-03-15 14:42:00,
2013-03-15 09:52:00,46.0,39.0,29.99,South,180,3.0,4.0,77,-99.99,,,-99.99,,2013-03-15 14:52:00,
2013-03-15 10:02:00,47.0,40.0,29.99,SSW,202,4.0,6.0,75,-99.99,,,-99.99,,2013-03-15 15:02:00,
2013-03-15 10:12:00,49.0,41.0,29.99,SSW,202,5.0,7.0,76,-99.99,,,-99.99,,2013-03-15 15:12:00,
2013-03-15 10:22:00,51.0,43.0,29.99,SSW,202,3.0,6.0,73,-99.99,,,-99.99,,2013-03-15 15:22:00,
2013-03-15 10:33:00,54.0,44.0,29.99,SSW,202,0.0,-999.0,69,-99.99,,,-99.99,,2013-03-15 15:33:00,
2013-03-15 10:42:00,56.0,45.0,29.99,South,180,3.0,4.0,68,-99.99,,,-99.99,,2013-03-15 15:42:00,
2013-03-15 10:52:00,57.0,46.0,29.99,South,180,3.0,4.0,67,-99.99,,,-99.99,,2013-03-15 15:52:00,
2013-03-15 11:02:00,57.0,46.0,29.98,SSW,202,4.0,5.0,66,-99.99,,,-99.99,,2013-03-15 16:02:00,
2013-03-15 11:12:00,58.0,47.0,29.98,South,180,3.0,5.0,66,-99.99,,,-99.99,,2013-03-15 16:12:00,
2013-03-15 11:22:00,59.0,47.0,29.98,SSE,157,2.0,4.0,65,-99.99,,,-99.99,,2013-03-15 16:22:00,
2013-03-15 11:32:00,60.0,48.0,29.97,SSE,157,3.0,4.0,63,-99.99,,,-99.99,,2013-03-15 16:32:00,
2013-03-15 11:42:00,62.0,47.0,29.97,South,180,2.0,4.0,60,-99.99,,,-99.99,,2013-03-15 16:42:00,
2013-03-15 11:52:00,63.0,48.0,29.96,South,180,2.0,4.0,58,-99.99,,,-99.99,,2013-03-15 16:52:00,
2013-03-15 12:02:00,64.0,48.0,29.96,SSE,157,3.0,4.0,56,-99.99,,,-99.99,,2013-03-15 17:02:00,
2013-03-15 12:12:00,65.0,47.0,29.95,SSE,157,5.0,8.0,53,-99.99,,,-99.99,,2013-03-15 17:12:00,
2013-03-15 12:22:00,65.0,47.0,29.94,SSE,157,4.0,8.0,52,-99.99,,,-99.99,,2013-03-15 17:22:00,
2013-03-15 12:32:00,66.0,49.0,29.93,SE,135,4.0,6.0,54,-99.99,,,-99.99,,2013-03-15 17:32:00,
2013-03-15 12:42:00,67.0,47.0,29.93,SE,135,5.0,8.0,49,-99.99,,,-99.99,,2013-03-15 17:42:00,
2013-03-15 12:52:00,66.0,47.0,29.92,SSE,157,5.0,7.0,49,-99.99,,,-99.99,,2013-03-15 17:52:00,
2013-03-15 13:02:00,68.0,47.0,29.92,SE,135,6.0,9.0,48,-99.99,,,-99.99,,2013-03-15 18:02:00,
2013-03-15 13:12:00,68.0,47.0,29.92,SSE,157,5.0,9.0,47,-99.99,,,-99.99,,2013-03-15 18:12:00,
2013-03-15 13:22:00,68.0,48.0,29.90,SE,135,6.0,8.0,48,-99.99,,,-99.99,,2013-03-15 18:22:00,
2013-03-15 13:32:00,68.0,47.0,29.89,SE,135,6.0,9.0,48,-99.99,,,-99.99,,2013-03-15 18:32:00,
2013-03-15 13:42:00,68.0,47.0,29.88,SE,135,7.0,11.0,47,-99.99,,,-99.99,,2013-03-15 18:42:00,
2013-03-15 13:52:00,68.0,47.0,29.88,SE,135,9.0,13.0,47,-99.99,,,-99.99,,2013-03-15 18:52:00,
2013-03-15 14:02:00,69.0,48.0,29.87,SSE,157,8.0,12.0,47,-99.99,,,-99.99,,2013-03-15 19:02:00,
2013-03-15 14:12:00,69.0,48.0,29.86,SSE,157,8.0,13.0,47,-99.99,,,-99.99,,2013-03-15 19:12:00,
2013-03-15 14:22:00,69.0,47.0,29.85,SSE,157,8.0,12.0,46,-99.99,,,-99.99,,2013-03-15 19:22:00,
2013-03-15 14:32:00,70.0,48.0,29.84,SSE,157,7.0,11.0,45,-99.99,,,-99.99,,2013-03-15 19:32:00,
2013-03-15 14:42:00,70.0,47.0,29.83,South,180,9.0,13.0,43,-99.99,,,-99.99,,2013-03-15 19:42:00,
2013-03-15 14:52:00,71.0,49.0,29.82,SSE,157,9.0,13.0,47,-99.99,,,-99.99,,2013-03-15 19:52:00,
2013-03-15 15:02:00,71.0,47.0,29.81,South,180,10.0,14.0,43,-99.99,,,-99.99,,2013-03-15 20:02:00,
2013-03-15 15:12:00,71.0,48.0,29.80,SSE,157,11.0,16.0,45,-99.99,,,-99.99,,2013-03-15 20:12:00,
2013-03-15 15:22:00,71.0,50.0,29.79,SSE,157,9.0,12.0,48,-99.99,,,-99.99,,2013-03-15 20:22:00,
2013-03-15 15:31:00,72.0,49.0,29.79,South,180,10.0,16.0,44,-99.99,,,-99.99,,2013-03-15 20:31:00,
2013-03-15 15:42:00,72.0,51.0,29.78,South,180,8.0,11.0,48,-99.99,,,-99.99,,2013-03-15 20:42:00,
2013-03-15 15:52:00,71.0,51.0,29.78,South,180,9.0,14.0,50,-99.99,,,-99.99,,2013-03-15 20:52:00,
2013-03-15 16:02:00,71.0,52.0,29.78,South,180,9.0,12.0,51,-99.99,,,-99.99,,2013-03-15 21:02:00,
2013-03-15 16:12:00,70.0,51.0,29.77,South,180,10.0,16.0,50,-99.99,,,-99.99,,2013-03-15 21:12:00,
2013-03-15 16:22:00,71.0,53.0,29.76,South,180,8.0,11.0,53,-99.99,,,-99.99,,2013-03-15 21:22:00,
2013-03-15 16:32:00,72.0,52.0,29.76,SSW,202,8.0,11.0,49,-99.99,,,-99.99,,2013-03-15 21:32:00,
2013-03-15 16:43:00,72.0,52.0,29.76,SSW,202,7.0,11.0,49,-99.99,,,-99.99,,2013-03-15 21:43:00,
2013-03-15 16:52:00,72.0,52.0,29.76,SSW,202,7.0,9.0,49,-99.99,,,-99.99,,2013-03-15 21:52:00,
2013-03-15 17:03:00,73.0,50.0,29.75,SSW,202,12.0,18.0,44,-99.99,,,-99.99,,2013-03-15 22:03:00,
2013-03-15 17:13:00,73.0,51.0,29.75,SSW,202,11.0,16.0,45,-99.99,,,-99.99,,2013-03-15 22:13:00,
2013-03-15 17:22:00,73.0,50.0,29.74,SSW,202,11.0,17.0,45,-99.99,,,-99.99,,2013-03-15 22:22:00,
2013-03-15 17:32:00,73.0,50.0,29.74,SSW,202,11.0,14.0,45,-99.99,,,-99.99,,2013-03-15 22:32:00,
2013-03-15 17:42:00,72.0,51.0,29.74,SW,225,9.0,15.0,46,-99.99,,,-99.99,,2013-03-15 22:42:00,
2013-03-15 17:52:00,72.0,50.0,29.73,SW,225,9.0,12.0,46,-99.99,,,-99.99,,2013-03-15 22:52:00,
2013-03-15 18:02:00,71.0,50.0,29.73,SW,225,8.0,11.0,47,-99.99,,,-99.99,,2013-03-15 23:02:00,
2013-03-15 18:12:00,71.0,50.0,29.73,SSW,202,8.0,11.0,47,-99.99,,,-99.99,,2013-03-15 23:12:00,
2013-03-15 18:22:00,71.0,50.0,29.73,SW,225,7.0,9.0,48,-99.99,,,-99.99,,2013-03-15 23:22:00,
2013-03-15 18:32:00,70.0,50.0,29.73,SW,225,6.0,8.0,49,-99.99,,,-99.99,,2013-03-15 23:32:00,
2013-03-15 18:42:00,69.0,51.0,29.73,SW,225,4.0,7.0,52,-99.99,,,-99.99,,2013-03-15 23:42:00,
2013-03-15 18:52:00,68.0,51.0,29.72,SW,225,3.0,4.0,54,-99.99,,,-99.99,,2013-03-15 23:52:00,
2013-03-15 19:02:00,68.0,51.0,29.72,WSW,247,3.0,4.0,54,-99.99,,,-99.99,,2013-03-16 00:02:00,
2013-03-15 19:12:00,67.0,51.0,29.72,WSW,247,3.0,4.0,56,-99.99,,,-99.99,,2013-03-16 00:12:00,
2013-03-15 19:22:00,66.0,51.0,29.72,WSW,247,4.0,5.0,58,-99.99,,,-99.99,,2013-03-16 00:22:00,
2013-03-15 19:32:00,66.0,50.0,29.72,SW,225,5.0,7.0,56,-99.99,,,-99.99,,2013-03-16 00:32:00,
2013-03-15 19:42:00,65.0,52.0,29.73,WNW,292,4.0,5.0,64,-99.99,,,-99.99,,2013-03-16 00:42:00,
2013-03-15 19:52:00,64.0,51.0,29.73,SW,225,4.0,5.0,62,-99.99,,,-99.99,,2013-03-16 00:52:00,
2013-03-15 20:02:00,65.0,51.0,29.73,SW,225,3.0,4.0,60,-99.99,,,-99.99,,2013-03-16 01:02:00,
2013-03-15 20:12:00,66.0,50.0,29.73,SW,225,4.0,6.0,56,-99.99,,,-99.99,,2013-03-16 01:12:00,
2013-03-15 20:21:00,65.0,50.0,29.73,SW,225,5.0,7.0,56,-99.99,,,-99.99,,2013-03-16 01:21:00,
2013-03-15 20:32:00,64.0,50.0,29.73,SW,225,4.0,5.0,59,-99.99,,,-99.99,,2013-03-16 01:32:00,
2013-03-15 20:42:00,64.0,49.0,29.73,SW,225,4.0,5.0,58,-99.99,,,-99.99,,2013-03-16 01:42:00,
2013-03-15 20:52:00,64.0,49.0,29.73,SW,225,4.0,5.0,58,-99.99,,,-99.99,,2013-03-16 01:52:00,
2013-03-15 21:02:00,64.0,49.0,29.72,SW,225,4.0,4.0,58,-99.99,,,-99.99,,2013-03-16 02:02:00,
2013-03-15 21:12:00,63.0,48.0,29.72,SW,225,4.0,6.0,59,-99.99,,,-99.99,,2013-03-16 02:12:00,
2013-03-15 21:22:00,63.0,48.0,29.72,SW,225,3.0,4.0,59,-99.99,,,-99.99,,2013-03-16 02:22:00,
2013-03-15 21:32:00,63.0,48.0,29.72,SW,225,4.0,4.0,58,-99.99,,,-99.99,,2013-03-16 02:32:00,
2013-03-15 21:42:00,62.0,48.0,29.73,SW,225,3.0,4.0,58,-99.99,,,-99.99,,2013-03-16 02:42:00,
2013-03-15 21:52:00,62.0,47.0,29.73,SW,225,3.0,4.0,59,-99.99,,,-99.99,,2013-03-16 02:52:00,
2013-03-15 22:02:00,61.0,48.0,29.73,SW,225,2.0,3.0,61,-99.99,,,-99.99,,2013-03-16 03:02:00,
2013-03-15 22:12:00,61.0,48.0,29.73,SW,225,3.0,4.0,62,-99.99,,,-99.99,,2013-03-16 03:12:00,
2013-03-15 22:22:00,60.0,48.0,29.73,SW,225,3.0,4.0,63,-99.99,,,-99.99,,2013-03-16 03:22:00,
2013-03-15 22:32:00,60.0,47.0,29.73,SW,225,3.0,3.0,63,-99.99,,,-99.99,,2013-03-16 03:32:00,
2013-03-15 22:43:00,59.0,47.0,29.73,SW,225,2.0,3.0,63,-99.99,,,-99.99,,2013-03-16 03:43:00,
2013-03-15 22:52:00,60.0,47.0,29.72,SW,225,2.0,3.0,62,-99.99,,,-99.99,,2013-03-16 03:52:00,
2013-03-15 23:02:00,59.0,46.0,29.72,SW,225,2.0,3.0,63,-99.99,,,-99.99,,2013-03-16 04:02:00,
2013-03-15 23:12:00,59.0,47.0,29.72,SW,225,3.0,5.0,64,-99.99,,,-99.99,,2013-03-16 04:12:00,
2013-03-15 23:22:00,59.0,47.0,29.72,WSW,247,4.0,5.0,64,-99.99,,,-99.99,,2013-03-16 04:22:00,
2013-03-15 23:32:00,58.0,47.0,29.72,WSW,247,4.0,6.0,66,-99.99,,,-99.99,,2013-03-16 04:32:00,
2013-03-15 23:42:00,59.0,47.0,29.73,West,270,4.0,6.0,65,-99.99,,,-99.99,,2013-03-16 04:42:00,
2013-03-15 23:52:00,57.0,47.0,29.72,West,270,2.0,4.0,68,-99.99,,,-99.99,,2013-03-16 04:52:00,